TimeEDT,TemperatureF,Dew PointF,Humidity,Sea Level PressureIn,VisibilityMPH,Wind Direction,Wind SpeedMPH,Gust SpeedMPH,PrecipitationIn,Events,Conditions,WindDirDegrees,DateUTC
12:53 AM,45.0,39.9,82,30.14,10.0,Calm,Calm,-,N/A,,Overcast,0,2013-05-13 04:53:00
1:53 AM,46.9,37.9,71,30.13,10.0,Calm,Calm,-,N/A,,Overcast,0,2013-05-13 05:53:00
2:53 AM,46.0,37.9,73,30.12,10.0,Calm,Calm,-,N/A,,Overcast,0,2013-05-13 06:53:00
3:53 AM,41.0,36.0,82,30.14,10.0,Calm,Calm,-,N/A,,Mostly Cloudy,0,2013-05-13 07:53:00
4:53 AM,39.0,37.0,93,30.14,10.0,East,3.5,-,N/A,,Partly Cloudy,100,2013-05-13 08:53:00
5:53 AM,37.9,37.0,97,30.14,10.0,Calm,Calm,-,N/A,,Mostly Cloudy,0,2013-05-13 09:53:00
6:53 AM,37.0,37.0,100,30.16,10.0,Calm,Calm,-,N/A,,Clear,0,2013-05-13 10:53:00
7:53 AM,42.1,39.9,92,30.17,10.0,Calm,Calm,-,N/A,,Clear,0,2013-05-13 11:53:00
8:53 AM,48.0,39.9,74,30.18,10.0,Calm,Calm,-,N/A,,Clear,0,2013-05-13 12:53:00
9:53 AM,53.1,37.0,55,30.19,10.0,WSW,8.1,-,N/A,,Clear,250,2013-05-13 13:53:00
10:53 AM,57.0,36.0,45,30.19,10.0,West,6.9,-,N/A,,Clear,270,2013-05-13 14:53:00
11:53 AM,57.0,33.1,40,30.20,10.0,Variable,6.9,-,N/A,,Partly Cloudy,0,2013-05-13 15:53:00
12:53 PM,57.9,32.0,37,30.19,10.0,WSW,11.5,-,N/A,,Mostly Cloudy,250,2013-05-13 16:53:00
1:53 PM,57.9,30.9,36,30.18,10.0,West,6.9,23.0,N/A,,Scattered Clouds,270,2013-05-13 17:53:00
2:53 PM,59.0,30.9,35,30.18,10.0,Variable,4.6,18.4,N/A,,Scattered Clouds,0,2013-05-13 18:53:00
4:53 PM,62.1,33.1,34,30.15,10.0,West,13.8,-,N/A,,Mostly Cloudy,280,2013-05-13 20:53:00
5:53 PM,62.1,28.9,29,30.14,10.0,Calm,Calm,-,N/A,,Scattered Clouds,0,2013-05-13 21:53:00
6:53 PM,61.0,28.0,29,30.14,10.0,WNW,3.5,-,N/A,,Partly Cloudy,290,2013-05-13 22:53:00
7:53 PM,59.0,28.4,31,30.14,10.0,NNW,5.8,-,N/A,,Clear,330,2013-05-13 23:53:00
8:53 PM,50.0,37.9,63,30.16,10.0,NE,3.5,-,N/A,,Clear,40,2013-05-14 00:53:00
9:53 PM,46.9,37.9,71,30.17,10.0,Calm,Calm,-,N/A,,Clear,0,2013-05-14 01:53:00
10:53 PM,45.0,39.0,80,30.18,10.0,Calm,Calm,-,N/A,,Clear,0,2013-05-14 02:53:00
11:53 PM,43.0,39.0,86,30.17,10.0,Calm,Calm,-,N/A,,Clear,0,2013-05-14 03:53:00